Weather History for KMWO - November, 2012

Change the Weather History Date:

Thursday, November 1, 2012

  Actual Average (KDAY) Record (KDAY)
Temperature  
Mean Temperature 44 °F 49 °F  
Max Temperature 52 °F 58 °F 79 °F (1950)
Min Temperature 37 °F 40 °F 20 °F (1906)
Degree Days  
Heating Degree Days 20 16  
Month to date heating degree days 16  
Since 1 July heating degree days 463  
Cooling Degree Days 0 0  
Month to date cooling degree days 0  
Year to date cooling degree days 891  
Moisture  
Dew Point 33 °F    
Average Humidity 67    
Maximum Humidity 93    
Minimum Humidity 37    
Precipitation  
Precipitation 0.00 in 0.11 in 1.64 in (1956)
Month to date precipitation 0.11  
Year to date precipitation 34.65  
Snow  
Snow 0.00 in 0.00 in 0.80 in (1954)
Month to date snowfall 0.0  
Since 1 July snowfall 0.4  
Since 1 September snowfall 0.4  
Snow Depth -    
Sea Level Pressure  
Sea Level Pressure 29.85 in    
Wind  
Wind Speed 7 mph (West)    
Max Wind Speed 15 mph    
Max Gust Speed 22 mph    
Visibility 10 miles    
Events      
T = Trace of Precipitation, MM = Missing Value Source: NWS Daily Summary

Daily Weather History Graph

Daily Weather History Graph

Search for Another Location

Airport or City:

Trip Planner

Search our weather history database for the weather conditions in past years. The results will help you decide how hot, cold, wet, or windy it might be!

Date:

Astronomy

Nov. 01, 2012 Rise Set
Actual Time 8:06 AM EDT 6:35 PM EDT
Civil Twilight 7:38 AM EDT 7:03 PM EDT
Nautical Twilight 7:06 AM EDT 7:35 PM EDT
Astronomical Twilight 6:35 AM EDT 8:06 PM EDT
Moon 8:32 PM EDT (11/1) 10:37 AM EDT (11/1)
Length of Visible Light 11h 24m
Length of Day
10h 28m
Waning Gibbous, 93% of the Moon is Illuminated
Nov 1
Waning Gibbous
Nov 6
Last Quarter
Nov 13
New
Nov 20
First Quarter
Nov 28
Full

Hourly Weather History & Observations

Time (EDT) Temp. Windchill Dew Point Humidity Pressure Visibility Wind Dir Wind Speed Gust Speed Precip Events Conditions
12:15 AM 40.1 °F 36.9 °F 36.9 °F 88% 29.83 in 10.0 mi West 4.6 mph - N/A   Overcast
12:35 AM 40.1 °F 35.3 °F 37.0 °F 89% 29.83 in 10.0 mi West 6.9 mph - N/A   Overcast
12:55 AM 40.1 °F 35.3 °F 37.0 °F 89% 29.83 in 10.0 mi West 6.9 mph - N/A   Overcast
1:15 AM 40.1 °F 35.3 °F 37.4 °F 90% 29.83 in 10.0 mi West 6.9 mph - N/A   Overcast
1:35 AM 40.1 °F 35.3 °F 36.5 °F 87% 29.82 in 10.0 mi WSW 6.9 mph - N/A   Overcast
1:55 AM 40.1 °F 36.1 °F 36.5 °F 87% 29.83 in 10.0 mi West 5.8 mph - N/A   Overcast
2:15 AM 40.1 °F 36.1 °F 37.2 °F 89% 29.82 in 10.0 mi WSW 5.8 mph - N/A   Overcast
2:35 AM 40.1 °F 36.9 °F 37.6 °F 91% 29.82 in 10.0 mi WSW 4.6 mph - N/A   Overcast
2:55 AM 40.1 °F 36.9 °F 38.1 °F 93% 29.82 in 10.0 mi SW 4.6 mph - N/A   Overcast
3:15 AM 40.1 °F 36.9 °F 37.9 °F 92% 29.82 in 10.0 mi WSW 4.6 mph - N/A   Overcast
3:35 AM 40.1 °F 36.1 °F 37.8 °F 91% 29.82 in 10.0 mi WSW 5.8 mph - N/A   Overcast
4:15 AM 40.1 °F 35.3 °F 37.6 °F 91% 29.81 in 10.0 mi WSW 6.9 mph - N/A   Overcast
4:35 AM 40.1 °F 36.1 °F 37.6 °F 91% 29.81 in 10.0 mi WSW 5.8 mph - N/A   Overcast
4:55 AM 40.6 °F 36.7 °F 37.4 °F 88% 29.82 in 10.0 mi WSW 5.8 mph - N/A   Overcast
5:15 AM 41.2 °F 38.2 °F 37.8 °F 88% 29.82 in 10.0 mi West 4.6 mph - N/A   Overcast
5:35 AM 41.4 °F 38.4 °F 37.4 °F 86% 29.82 in 10.0 mi West 4.6 mph - N/A   Overcast
6:15 AM 41.5 °F 37.8 °F 37.4 °F 85% 29.83 in 10.0 mi West 5.8 mph - N/A   Overcast
6:35 AM 41.4 °F 37.6 °F 37.4 °F 86% 29.83 in 10.0 mi West 5.8 mph - N/A   Overcast
6:55 AM 41.4 °F 36.8 °F 36.9 °F 84% 29.83 in 10.0 mi West 6.9 mph - N/A   Overcast
7:15 AM 40.1 °F 35.3 °F 36.1 °F 86% 29.83 in 10.0 mi WSW 6.9 mph - N/A   Scattered Clouds
7:35 AM 38.8 °F 33.8 °F 35.4 °F 88% 29.84 in 10.0 mi West 6.9 mph - N/A   Clear
8:15 AM 37.6 °F 31.6 °F 34.2 °F 87% 29.85 in 10.0 mi WSW 8.1 mph - N/A   Clear
8:35 AM 37.6 °F 30.5 °F 33.8 °F 86% 29.85 in 10.0 mi WSW 10.4 mph - N/A   Clear
8:55 AM 37.6 °F 31.0 °F 32.9 °F 83% 29.87 in 10.0 mi WSW 9.2 mph - N/A   Clear
9:35 AM 38.8 °F 33.2 °F 32.5 °F 78% 29.87 in 10.0 mi West 8.1 mph - N/A   Clear
9:55 AM 40.1 °F 34.1 °F 32.9 °F 75% 29.87 in 10.0 mi West 9.2 mph - N/A   Clear
10:15 AM 40.3 °F 33.9 °F 32.4 °F 73% 29.87 in 10.0 mi WSW 10.4 mph - N/A   Clear
10:35 AM 41.4 °F 35.7 °F 32.7 °F 71% 29.88 in 10.0 mi WSW 9.2 mph - N/A   Clear
10:55 AM 41.5 °F 35.4 °F 32.2 °F 69% 29.88 in 10.0 mi West 10.4 mph 17.3 mph N/A   Clear
11:15 AM 45.1 °F 39.5 °F 34.7 °F 67% 29.88 in 10.0 mi West 11.5 mph 16.1 mph N/A   Clear
11:35 AM 45.1 °F 39.5 °F 33.4 °F 64% 29.88 in 10.0 mi WSW 11.5 mph - N/A   Clear
11:55 AM 47.7 °F - 34.2 °F 60% 29.88 in 10.0 mi West 11.5 mph 17.3 mph N/A   Clear
12:15 PM 47.7 °F - 31.6 °F 54% 29.88 in 10.0 mi WNW 13.8 mph 21.9 mph N/A   Clear
12:35 PM 47.7 °F - 30.2 °F 51% 29.87 in 10.0 mi West 11.5 mph 20.7 mph N/A   Clear
1:15 PM 47.8 °F - 30.6 °F 51% 29.87 in 10.0 mi West 11.5 mph - N/A   Scattered Clouds
1:35 PM 48.6 °F - 31.3 °F 51% 29.85 in 10.0 mi West 15.0 mph - N/A   Clear
1:55 PM 49.1 °F - 29.8 °F 47% 29.85 in 10.0 mi WSW 9.2 mph 18.4 mph N/A   Clear
2:15 PM 52.3 °F - 30.7 °F 44% 29.85 in 10.0 mi West 13.8 mph 21.9 mph N/A   Scattered Clouds
2:35 PM 52.7 °F - 31.3 °F 44% 29.85 in 10.0 mi West 15.0 mph 19.6 mph N/A   Scattered Clouds
2:55 PM 51.8 °F - 29.1 °F 42% 29.84 in 10.0 mi West 11.5 mph 20.7 mph N/A   Scattered Clouds
3:15 PM 52.3 °F - 30.7 °F 44% 29.84 in 10.0 mi WNW 9.2 mph - N/A   Scattered Clouds
3:35 PM 52.7 °F - 28.9 °F 40% 29.83 in 10.0 mi West 12.7 mph 19.6 mph N/A   Scattered Clouds
3:55 PM 52.7 °F - 28.2 °F 39% 29.83 in 10.0 mi West 13.8 mph 19.6 mph N/A   Scattered Clouds
4:15 PM 52.7 °F - 28.4 °F 39% 29.83 in 10.0 mi West 11.5 mph 21.9 mph N/A   Scattered Clouds
4:35 PM 52.7 °F - 28.9 °F 40% 29.83 in 10.0 mi WNW 12.7 mph 18.4 mph N/A   Scattered Clouds
4:55 PM 52.7 °F - 28.8 °F 40% 29.83 in 10.0 mi West 12.7 mph 18.4 mph N/A   Clear
5:15 PM 52.7 °F - 26.8 °F 37% 29.83 in 10.0 mi West 12.7 mph 21.9 mph N/A   Clear
5:55 PM 50.2 °F - 28.4 °F 43% 29.83 in 10.0 mi West 9.2 mph - N/A   Mostly Cloudy
6:15 PM 50.0 °F - 28.8 °F 44% 29.83 in 10.0 mi West 8.1 mph - N/A   Mostly Cloudy
6:35 PM 47.7 °F - 29.3 °F 49% 29.84 in 10.0 mi West 6.9 mph - N/A   Scattered Clouds
6:55 PM 47.7 °F - 30.0 °F 50% 29.84 in 10.0 mi West 8.1 mph - N/A   Mostly Cloudy
7:15 PM 47.8 °F - 28.6 °F 47% 29.84 in 10.0 mi West 9.2 mph - N/A   Overcast
7:35 PM 47.7 °F - 30.2 °F 51% 29.85 in 10.0 mi WSW 5.8 mph - N/A   Overcast
7:55 PM 47.7 °F - 32.2 °F 55% 29.85 in 10.0 mi WSW 5.8 mph - N/A   Overcast
8:15 PM 47.7 °F - 32.0 °F 55% 29.85 in 10.0 mi WSW 6.9 mph - N/A   Overcast
8:35 PM 47.7 °F - 33.6 °F 58% 29.85 in 10.0 mi West 3.5 mph - N/A   Overcast
8:55 PM 47.7 °F - 31.8 °F 54% 29.86 in 10.0 mi West 5.8 mph - N/A   Overcast
9:15 PM 47.7 °F - 31.5 °F 53% 29.86 in 10.0 mi West 6.9 mph - N/A   Overcast
9:35 PM 47.7 °F - 32.0 °F 55% 29.86 in 10.0 mi West 3.5 mph - N/A   Overcast
9:55 PM 47.7 °F - 32.7 °F 56% 29.87 in 10.0 mi West 5.8 mph - N/A   Overcast
10:15 PM 47.7 °F - 33.1 °F 57% 29.87 in 10.0 mi West 4.6 mph - N/A   Overcast
10:35 PM 47.7 °F - 34.0 °F 59% 29.87 in 10.0 mi WSW 3.5 mph - N/A   Mostly Cloudy
10:55 PM 42.1 °F 39.2 °F 34.3 °F 74% 29.87 in 10.0 mi West 4.6 mph - N/A   Mostly Cloudy
11:15 PM 41.0 °F 39.0 °F 35.8 °F 82% 29.87 in 10.0 mi West 3.5 mph - N/A   Scattered Clouds
11:35 PM 39.0 °F 36.8 °F 35.1 °F 86% 29.87 in 10.0 mi WNW 3.5 mph - N/A   Scattered Clouds
11:55 PM 39.0 °F 34.8 °F 36.1 °F 89% 29.87 in 10.0 mi West 5.8 mph - N/A   Overcast